This is the latest recevied weather packets stored in our database for station/object KM6YFK-13. If no packets are shown the sender has not sent any weather packets the latest 10 day(s).
| Time | Temp. | Humidity | Pressure | Rain* | Wind** | Luminosity | Snow |
|---|---|---|---|---|---|---|---|
| 1777939107 | 22.22° C | 58% | 1015.8 hPa | 0 mm | - | 6 W/m² | - |
| 1777938809 | 22.22° C | 58% | 1015.8 hPa | 0 mm | - | 9 W/m² | - |
| 1777938507 | 22.78° C | 57% | 1015.7 hPa | 0 mm | - | 13 W/m² | - |
| 1777938207 | 22.78° C | 55% | 1015.7 hPa | 0 mm | - | 18 W/m² | - |
| 1777937907 | 22.78° C | 54% | 1015.5 hPa | 0 mm | - | 24 W/m² | - |
| 1777937608 | 22.78° C | 54% | 1015.6 hPa | 0 mm | - | 30 W/m² | - |
| 1777937308 | 23.33° C | 51% | 1015.6 hPa | 0 mm | - | 38 W/m² | - |
| 1777937008 | 23.33° C | 52% | 1015.7 hPa | 0 mm | - | 52 W/m² | - |
| 1777936707 | 23.33° C | 52% | 1015.7 hPa | 0 mm | - | 63 W/m² | - |
| 1777936408 | 23.33° C | 51% | 1015.7 hPa | 0 mm | - | 75 W/m² | - |
| 1777936107 | 23.33° C | 50% | 1015.7 hPa | 0 mm | - | 88 W/m² | - |
| 1777935808 | 23.33° C | 51% | 1015.7 hPa | 0 mm | - | 102 W/m² | - |
| 1777935507 | 23.33° C | 52% | 1015.7 hPa | 0 mm | - | 117 W/m² | - |
| 1777935207 | 23.89° C | 52% | 1015.7 hPa | 0 mm | - | 132 W/m² | - |
| 1777934907 | 23.89° C | 51% | 1015.8 hPa | 0 mm | - | 148 W/m² | - |
| 1777934607 | 23.89° C | 51% | 1015.9 hPa | 0 mm | - | 165 W/m² | - |
| 1777934308 | 23.89° C | 50% | 1015.9 hPa | 0 mm | - | 183 W/m² | - |
| 1777934007 | 23.89° C | 50% | 1015.9 hPa | 0 mm | - | 201 W/m² | - |
| 1777933708 | 23.89° C | 49% | 1015.9 hPa | 0 mm | - | 219 W/m² | - |
| 1777933407 | 23.89° C | 49% | 1015.9 hPa | 0 mm | - | 237 W/m² | - |
| 1777933107 | 23.89° C | 50% | 1015.8 hPa | 0 mm | - | 255 W/m² | - |
| 1777932807 | 23.89° C | 50% | 1015.8 hPa | 0 mm | - | 213 W/m² | - |
| 1777932507 | 23.89° C | 51% | 1015.9 hPa | 0 mm | - | 292 W/m² | - |
| 1777932208 | 23.89° C | 50% | 1015.9 hPa | 0 mm | - | 312 W/m² | - |
| 1777931907 | 23.89° C | 49% | 1015.9 hPa | 0 mm | - | 331 W/m² | - |
* Rain latest hour (hover to see other rain measurements)
** Current wind speed in m/s (hover to see current wind gust speed)